Location: Bratislava
(0.0000°N, 17.1167°E)
Time: 04:33:27
(UTC+01:00)

Lacrosse 5 rocket - Pass Details

Date: 24 January 2021
Orbit: 465 x 630 km, 57.0° (Epoch: 06 March)

Event Time Altitude Azimuth Distance (km) Brightness Sun altitude
Rises 19:35:31 0° 213° (SSW) 2,891 5.8 -21.6°
Reaches altitude 10° 19:37:48 10° 215° (SW) 1,994 4.9 -22.2°
Maximum altitude 19:42:22 74° 299° (WNW) 655 1.6 -23.2°
Enters shadow 19:43:08 59° 1° (N) 726 1.7 -23.4°
